Columbus, OH

4:27 AM EST on January 22, 2018 (GMT -0500)
Port Columbus International

Weather History for KCMH - February, 2013

Change the Weather History Date:

Tuesday, February 26, 2013

  Actual Average Record
Temperature  
Mean Temperature 40 °F 36 °F  
Max Temperature 44 °F 44 °F 75 °F (2000)
Min Temperature 35 °F 27 °F -10 °F (1963)
Degree Days  
Heating Degree Days 25 29  
Month to date heating degree days 886 845  
Since 1 July heating degree days 3802 3937  
Cooling Degree Days 0 0  
Month to date cooling degree days 0 0  
Year to date cooling degree days 0 0  
Moisture  
Dew Point 37 °F    
Average Humidity 76    
Maximum Humidity 100    
Minimum Humidity 52    
Precipitation  
Precipitation 0.72 in 0.09 in 1.55 in (1887)
Month to date precipitation 1.56 2.09  
Year to date precipitation 3.81 4.82  
Snow  
Snow 0.00 in 0.20 in 5.20 in (1894)
Month to date snowfall 6.4 5.7  
Since 1 July snowfall 28.6 21.0  
Snow Depth 0.00 in    
Sea Level Pressure  
Sea Level Pressure 29.61 in    
Wind  
Wind Speed 13 mph (ESE)    
Max Wind Speed 22 mph    
Max Gust Speed 30 mph    
Visibility 8 miles    
Events Rain    
T = Trace of Precipitation, MM = Missing Value Source: NWS Daily Summary

Daily Weather History Graph

Daily Weather History Graph

Search for Another Location

Airport or City:

Trip Planner

Search our weather history database for the weather conditions in past years. The results will help you decide how hot, cold, wet, or windy it might be!

Date:

Astronomy

Feb. 26, 2013 Rise Set
Actual Time 7:08 AM EST 6:20 PM EST
Civil Twilight 6:41 AM EST 6:47 PM EST
Nautical Twilight 6:10 AM EST 7:19 PM EST
Astronomical Twilight 5:39 AM EST 7:50 PM EST
Moon 7:35 PM EST (2/26) 7:10 AM EST (2/26)
Length of Visible Light 12h 05m
Length of Day
11h 11m
Full, 99% of the Moon is Illuminated
Feb 26
Full
Mar 4
Last Quarter
Mar 11
New
Mar 19
First Quarter
Mar 27
Full

Hourly Weather History & Observations

Time (EST) Temp. Windchill Dew Point Humidity Pressure Visibility Wind Dir Wind Speed Gust Speed Precip Events Conditions
12:51 AM 36.0 °F 30.3 °F 21.9 °F 57% 29.98 in 10.0 mi East 6.9 mph - N/A   Overcast
1:51 AM 36.0 °F 28.0 °F 21.9 °F 57% 29.96 in 10.0 mi East 11.5 mph - N/A   Overcast
2:51 AM 36.0 °F 27.5 °F 21.9 °F 57% 29.90 in 10.0 mi ENE 12.7 mph - N/A   Overcast
3:51 AM 36.0 °F 27.5 °F 21.9 °F 57% 29.86 in 10.0 mi ENE 12.7 mph - N/A   Overcast
4:51 AM 36.0 °F 28.0 °F 21.9 °F 57% 29.86 in 10.0 mi East 11.5 mph - N/A   Overcast
5:51 AM 36.0 °F 28.5 °F 21.9 °F 57% 29.83 in 10.0 mi East 10.4 mph - N/A   Overcast
6:51 AM 37.0 °F 28.5 °F 21.9 °F 54% 29.81 in 10.0 mi East 13.8 mph 20.7 mph N/A   Overcast
7:51 AM 37.9 °F 30.5 °F 23.0 °F 55% 29.78 in 10.0 mi East 11.5 mph - N/A   Overcast
8:51 AM 36.0 °F 26.3 °F 30.9 °F 82% 29.76 in 6.0 mi East 16.1 mph 23.0 mph 0.05 in Rain Rain
9:51 AM 37.0 °F 27.4 °F 36.0 °F 96% 29.73 in 10.0 mi East 17.3 mph 25.3 mph 0.03 in   Overcast
10:51 AM 37.9 °F 28.5 °F 37.0 °F 97% 29.68 in 9.0 mi East 17.3 mph 29.9 mph 0.00 in Rain Light Rain
11:51 AM 37.9 °F 31.5 °F 37.9 °F 100% 29.64 in 5.0 mi East 9.2 mph 18.4 mph 0.08 in Rain Rain
12:05 PM 39.2 °F 31.6 °F 39.2 °F 100% 29.61 in 7.0 mi East 12.7 mph 24.2 mph 0.01 in Rain Light Rain
12:51 PM 39.9 °F 31.1 °F 39.9 °F 100% 29.59 in 7.0 mi ESE 17.3 mph 26.5 mph 0.03 in Rain Light Rain
1:16 PM 39.2 °F 31.2 °F 39.2 °F 100% 29.58 in 4.0 mi ESE 13.8 mph - 0.08 in Rain Light Rain
1:51 PM 39.0 °F 30.6 °F 39.0 °F 100% 29.58 in 3.0 mi ESE 15.0 mph 19.6 mph 0.22 in Rain Heavy Rain
2:47 PM 41.0 °F 34.3 °F 41.0 °F 100% 29.54 in 6.0 mi ESE 11.5 mph - 0.07 in   Overcast
2:51 PM 41.0 °F 34.3 °F 41.0 °F 100% 29.54 in 6.0 mi ESE 11.5 mph - 0.07 in   Overcast
2:58 PM 41.0 °F 33.5 °F 41.0 °F 100% 29.52 in 10.0 mi ESE 13.8 mph - N/A   Overcast
3:25 PM 42.8 °F 35.1 °F 42.8 °F 100% 29.49 in 7.0 mi East 16.1 mph 24.2 mph 0.01 in Rain Light Rain
3:51 PM 42.1 °F 34.5 °F 42.1 °F 100% 29.50 in 10.0 mi ESE 15.0 mph 23.0 mph 0.01 in Rain Light Rain
3:58 PM 42.8 °F 35.4 °F 42.8 °F 100% 29.48 in 10.0 mi East 15.0 mph 24.2 mph 0.00 in   Overcast
4:51 PM 42.1 °F 34.2 °F 42.1 °F 100% 29.49 in 3.0 mi ESE 16.1 mph 25.3 mph 0.05 in Rain Rain
5:00 PM 42.8 °F 34.8 °F 42.8 °F 100% 29.47 in 4.0 mi East 17.3 mph 25.3 mph 0.01 in Rain Rain
5:51 PM 42.1 °F 35.2 °F 42.1 °F 100% 29.48 in 10.0 mi East 12.7 mph 24.2 mph 0.05 in   Overcast
5:58 PM 42.8 °F 35.1 °F 42.8 °F 100% 29.46 in 10.0 mi ESE 16.1 mph 21.9 mph N/A   Overcast
6:47 PM 41.0 °F 33.1 °F 41.0 °F 100% 29.46 in 5.0 mi ESE 15.0 mph 27.6 mph 0.02 in Rain Rain
6:51 PM 41.0 °F 32.8 °F 41.0 °F 100% 29.49 in 5.0 mi ESE 16.1 mph 27.6 mph 0.03 in Rain Light Rain
7:00 PM 41.0 °F 33.5 °F 41.0 °F 100% 29.48 in 5.0 mi ESE 13.8 mph - 0.01 in Rain Rain
7:21 PM 41.0 °F 33.5 °F 41.0 °F 100% 29.48 in 7.0 mi ESE 13.8 mph 23.0 mph 0.06 in Rain Light Rain
7:29 PM 41.0 °F 34.7 °F 41.0 °F 100% 29.48 in 8.0 mi ESE 10.4 mph - 0.06 in Rain Light Rain
7:51 PM 41.0 °F 33.9 °F 41.0 °F 100% 29.49 in 9.0 mi ESE 12.7 mph - 0.07 in Rain Light Rain
8:00 PM 41.0 °F 34.7 °F 41.0 °F 100% 29.48 in 10.0 mi ESE 10.4 mph - 0.00 in Rain Light Rain
8:34 PM 42.8 °F 38.6 °F 42.8 °F 100% 29.47 in 10.0 mi South 6.9 mph - 0.01 in Rain Light Rain
8:41 PM 42.8 °F 38.6 °F 42.8 °F 100% 29.48 in 9.0 mi SSE 6.9 mph - 0.01 in Rain Light Rain
8:51 PM 42.1 °F 34.5 °F 42.1 °F 100% 29.49 in 9.0 mi ESE 15.0 mph 20.7 mph 0.02 in Rain Light Rain
9:38 PM 42.8 °F 40.1 °F 42.8 °F 100% 29.48 in 10.0 mi SE 4.6 mph - 0.01 in   Overcast
9:51 PM 42.1 °F 37.1 °F 42.1 °F 100% 29.49 in 10.0 mi SSE 8.1 mph - 0.01 in   Overcast
10:06 PM 42.8 °F 37.5 °F 42.8 °F 100% 29.48 in 9.0 mi SE 9.2 mph - N/A   Overcast
10:51 PM 43.0 °F 38.8 °F 43.0 °F 100% 29.49 in 10.0 mi SSE 6.9 mph - N/A   Overcast
11:51 PM 44.1 °F 38.1 °F 44.1 °F 100% 29.50 in 10.0 mi SSW 11.5 mph - N/A   Overcast